Time,TemperatureF,DewpointF,PressureIn,WindDirection,WindDirectionDegrees,WindSpeedMPH,WindSpeedGustMPH,Humidity,HourlyPrecipIn,Conditions,Clouds,dailyrainin,SoftwareType,DateUTC
2013-08-25 00:10:00,82.4,71.0,30.77,East,94,3.0,-999.0,68,-99.99,,,0.00,weatherlink.com 1.10,2013-08-25 05:10:00,
2013-08-25 00:25:00,82.1,72.0,30.76,ENE,78,3.0,-999.0,71,-99.99,,,0.00,weatherlink.com 1.10,2013-08-25 05:25:00,
2013-08-25 00:40:00,81.9,72.0,30.77,East,96,2.0,-999.0,73,-99.99,,,0.00,weatherlink.com 1.10,2013-08-25 05:40:00,
2013-08-25 00:55:00,81.7,72.0,30.77,East,89,0.0,-999.0,73,-99.99,,,0.00,weatherlink.com 1.10,2013-08-25 05:55:00,
2013-08-25 01:11:00,81.3,72.0,30.77,East,88,0.0,-999.0,74,-99.99,,,0.00,weatherlink.com 1.10,2013-08-25 06:11:00,
2013-08-25 01:26:00,80.9,72.0,30.77,East,88,0.0,-999.0,75,-99.99,,,0.00,weatherlink.com 1.10,2013-08-25 06:26:00,
2013-08-25 01:41:00,80.5,72.0,30.77,East,92,0.0,-999.0,75,-99.99,,,0.00,weatherlink.com 1.10,2013-08-25 06:41:00,
2013-08-25 01:56:00,80.2,72.0,30.78,East,92,0.0,-999.0,76,-99.99,,,0.00,weatherlink.com 1.10,2013-08-25 06:56:00,
2013-08-25 02:11:00,79.8,72.0,30.78,East,86,3.0,-999.0,76,-99.99,,,0.00,weatherlink.com 1.10,2013-08-25 07:11:00,
2013-08-25 02:26:00,79.8,71.0,30.78,ENE,74,2.0,-999.0,74,-99.99,,,0.00,weatherlink.com 1.10,2013-08-25 07:26:00,
2013-08-25 02:41:00,79.4,71.0,30.77,East,96,0.0,-999.0,75,-99.99,,,0.00,weatherlink.com 1.10,2013-08-25 07:41:00,
2013-08-25 02:56:00,78.9,71.0,30.78,East,96,0.0,-999.0,76,-99.99,,,0.00,weatherlink.com 1.10,2013-08-25 07:56:00,
2013-08-25 03:11:00,78.4,71.0,30.79,East,96,0.0,-999.0,77,-99.99,,,0.00,weatherlink.com 1.10,2013-08-25 08:11:00,
2013-08-25 03:26:00,77.8,70.0,30.78,East,96,0.0,-999.0,77,-99.99,,,0.00,weatherlink.com 1.10,2013-08-25 08:26:00,
2013-08-25 03:41:00,77.4,70.0,30.78,East,96,0.0,-999.0,78,-99.99,,,0.00,weatherlink.com 1.10,2013-08-25 08:41:00,
2013-08-25 03:56:00,76.9,70.0,30.78,East,96,0.0,-999.0,79,-99.99,,,0.00,weatherlink.com 1.10,2013-08-25 08:56:00,
2013-08-25 04:11:00,76.6,70.0,30.78,East,96,0.0,-999.0,79,-99.99,,,0.00,weatherlink.com 1.10,2013-08-25 09:11:00,
2013-08-25 04:26:00,76.1,70.0,30.78,East,96,0.0,-999.0,80,-99.99,,,0.00,weatherlink.com 1.10,2013-08-25 09:26:00,
2013-08-25 04:41:00,75.7,69.0,30.78,NW,321,0.0,-999.0,80,-99.99,,,0.00,weatherlink.com 1.10,2013-08-25 09:41:00,
2013-08-25 04:56:00,75.5,69.0,30.78,NW,321,0.0,-999.0,81,-99.99,,,0.00,weatherlink.com 1.10,2013-08-25 09:56:00,
2013-08-25 05:11:00,75.3,69.0,30.79,NW,321,0.0,-999.0,81,-99.99,,,0.00,weatherlink.com 1.10,2013-08-25 10:11:00,
2013-08-25 05:26:00,75.1,69.0,30.79,NW,321,0.0,-999.0,82,-99.99,,,0.00,weatherlink.com 1.10,2013-08-25 10:26:00,
2013-08-25 05:41:00,75.1,69.0,30.80,NW,321,0.0,-999.0,82,-99.99,,,0.00,weatherlink.com 1.10,2013-08-25 10:41:00,
2013-08-25 05:56:00,74.9,69.0,30.79,NW,321,0.0,-999.0,82,-99.99,,,0.00,weatherlink.com 1.10,2013-08-25 10:56:00,
2013-08-25 06:11:00,74.9,69.0,30.80,NW,321,2.0,-999.0,82,-99.99,,,0.00,weatherlink.com 1.10,2013-08-25 11:11:00,
2013-08-25 06:26:00,74.7,69.0,30.80,NW,321,0.0,-999.0,83,-99.99,,,0.00,weatherlink.com 1.10,2013-08-25 11:26:00,
2013-08-25 06:41:00,74.6,69.0,30.80,NNW,335,0.0,-999.0,83,-99.99,,,0.00,weatherlink.com 1.10,2013-08-25 11:41:00,
2013-08-25 06:56:00,74.6,69.0,30.80,NNW,337,0.0,-999.0,83,-99.99,,,0.00,weatherlink.com 1.10,2013-08-25 11:56:00,
2013-08-25 07:11:00,74.6,70.0,30.80,NW,319,2.0,-999.0,84,-99.99,,,0.00,weatherlink.com 1.10,2013-08-25 12:11:00,
2013-08-25 07:26:00,74.9,70.0,30.80,NE,34,0.0,-999.0,84,-99.99,,,0.00,weatherlink.com 1.10,2013-08-25 12:26:00,
2013-08-25 07:41:00,75.3,70.0,30.81,NNW,331,2.0,-999.0,84,-99.99,,,0.00,weatherlink.com 1.10,2013-08-25 12:41:00,
2013-08-25 07:56:00,75.5,70.0,30.80,East,101,2.0,-999.0,84,-99.99,,,0.00,weatherlink.com 1.10,2013-08-25 12:56:00,
2013-08-25 08:11:00,75.9,71.0,30.80,NW,321,2.0,-999.0,84,-99.99,,,0.00,weatherlink.com 1.10,2013-08-25 13:11:00,
2013-08-25 08:26:00,76.3,71.0,30.82,NNE,22,3.0,-999.0,84,-99.99,,,0.00,weatherlink.com 1.10,2013-08-25 13:26:00,
2013-08-25 08:41:00,76.7,71.0,30.82,NW,313,0.0,-999.0,83,-99.99,,,0.00,weatherlink.com 1.10,2013-08-25 13:41:00,
2013-08-25 08:56:00,77.3,71.0,30.82,NW,310,0.0,-999.0,82,-99.99,,,0.00,weatherlink.com 1.10,2013-08-25 13:56:00,
2013-08-25 09:11:00,77.7,71.0,30.82,North,351,2.0,-999.0,81,-99.99,,,0.00,weatherlink.com 1.10,2013-08-25 14:11:00,
2013-08-25 09:26:00,78.1,72.0,30.82,NW,317,2.0,-999.0,81,-99.99,,,0.00,weatherlink.com 1.10,2013-08-25 14:26:00,
2013-08-25 09:41:00,78.6,72.0,30.82,ENE,62,3.0,-999.0,80,-99.99,,,0.00,weatherlink.com 1.10,2013-08-25 14:41:00,
2013-08-25 09:56:00,79.0,72.0,30.82,ENE,76,2.0,-999.0,78,-99.99,,,0.00,weatherlink.com 1.10,2013-08-25 14:56:00,
2013-08-25 10:11:00,80.1,72.0,30.82,ENE,61,2.0,-999.0,77,-99.99,,,0.00,weatherlink.com 1.10,2013-08-25 15:11:00,
2013-08-25 10:26:00,80.9,73.0,30.82,NE,46,3.0,-999.0,77,-99.99,,,0.00,weatherlink.com 1.10,2013-08-25 15:26:00,
2013-08-25 10:41:00,81.6,73.0,30.82,ENE,76,1.0,-999.0,76,-99.99,,,0.00,weatherlink.com 1.10,2013-08-25 15:41:00,
2013-08-25 10:56:00,82.0,73.0,30.83,ENE,67,1.0,-999.0,75,-99.99,,,0.00,weatherlink.com 1.10,2013-08-25 15:56:00,
2013-08-25 11:11:00,82.3,74.0,30.83,NE,39,2.0,-999.0,75,-99.99,,,0.00,weatherlink.com 1.10,2013-08-25 16:11:00,
2013-08-25 11:26:00,83.2,74.0,30.83,North,11,6.0,-999.0,73,-99.99,,,0.00,weatherlink.com 1.10,2013-08-25 16:26:00,
2013-08-25 11:41:00,82.9,73.0,30.83,NNW,335,2.0,-999.0,73,-99.99,,,0.00,weatherlink.com 1.10,2013-08-25 16:41:00,
2013-08-25 11:56:00,84.5,75.0,30.83,NW,310,5.0,-999.0,72,-99.99,,,0.00,weatherlink.com 1.10,2013-08-25 16:56:00,
2013-08-25 12:11:00,84.5,74.0,30.83,NE,51,5.0,-999.0,71,-99.99,,,0.00,weatherlink.com 1.10,2013-08-25 17:11:00,
2013-08-25 12:26:00,85.3,74.0,30.83,NE,55,3.0,-999.0,68,-99.99,,,0.00,weatherlink.com 1.10,2013-08-25 17:26:00,
2013-08-25 12:41:00,85.7,74.0,30.82,ENE,65,5.0,-999.0,68,-99.99,,,0.00,weatherlink.com 1.10,2013-08-25 17:41:00,
2013-08-25 12:56:00,86.8,74.0,30.82,ENE,67,6.0,-999.0,65,-99.99,,,0.00,weatherlink.com 1.10,2013-08-25 17:56:00,
2013-08-25 13:11:00,87.6,73.0,30.82,NNE,15,7.0,-999.0,63,-99.99,,,0.00,weatherlink.com 1.10,2013-08-25 18:11:00,
2013-08-25 13:26:00,87.2,74.0,30.81,East,89,3.0,-999.0,64,-99.99,,,0.00,weatherlink.com 1.10,2013-08-25 18:26:00,
2013-08-25 13:41:00,88.1,73.0,30.81,NE,44,5.0,-999.0,61,-99.99,,,0.00,weatherlink.com 1.10,2013-08-25 18:41:00,
2013-08-25 13:56:00,89.3,73.0,30.80,NE,38,5.0,-999.0,59,-99.99,,,0.00,weatherlink.com 1.10,2013-08-25 18:56:00,
2013-08-25 14:12:00,89.2,72.0,30.81,East,86,11.0,-999.0,58,-99.99,,,0.00,weatherlink.com 1.10,2013-08-25 19:12:00,
2013-08-25 14:27:00,89.1,72.0,30.80,NE,55,4.0,-999.0,57,-99.99,,,0.00,weatherlink.com 1.10,2013-08-25 19:27:00,
2013-08-25 14:42:00,90.2,72.0,30.80,NNE,25,15.0,-999.0,55,-99.99,,,0.00,weatherlink.com 1.10,2013-08-25 19:42:00,
2013-08-25 14:57:00,90.5,72.0,30.79,East,97,11.0,-999.0,54,-99.99,,,0.00,weatherlink.com 1.10,2013-08-25 19:57:00,
2013-08-25 15:12:00,90.6,73.0,30.78,ENE,64,9.0,-999.0,56,-99.99,,,0.00,weatherlink.com 1.10,2013-08-25 20:12:00,
2013-08-25 15:27:00,92.3,71.0,30.78,East,91,6.0,-999.0,50,-99.99,,,0.00,weatherlink.com 1.10,2013-08-25 20:27:00,
2013-08-25 15:42:00,92.5,72.0,30.77,SE,130,3.0,-999.0,51,-99.99,,,0.00,weatherlink.com 1.10,2013-08-25 20:42:00,
2013-08-25 15:57:00,92.2,71.0,30.77,NE,56,3.0,-999.0,50,-99.99,,,0.00,weatherlink.com 1.10,2013-08-25 20:57:00,
2013-08-25 16:12:00,91.8,73.0,30.77,SSE,148,3.0,-999.0,54,-99.99,,,0.00,weatherlink.com 1.10,2013-08-25 21:12:00,
2013-08-25 16:27:00,91.9,72.0,30.76,East,82,6.0,-999.0,53,-99.99,,,0.00,weatherlink.com 1.10,2013-08-25 21:27:00,
2013-08-25 16:41:00,92.6,72.0,30.76,ENE,69,5.0,-999.0,52,-99.99,,,0.00,weatherlink.com 1.10,2013-08-25 21:41:00,
2013-08-25 16:56:00,92.7,72.0,30.77,ENE,66,10.0,-999.0,51,-99.99,,,0.00,weatherlink.com 1.10,2013-08-25 21:56:00,
2013-08-25 17:11:00,92.5,71.0,30.77,ESE,109,7.0,-999.0,50,-99.99,,,0.00,weatherlink.com 1.10,2013-08-25 22:11:00,
2013-08-25 17:26:00,92.6,70.0,30.76,ENE,74,7.0,-999.0,47,-99.99,,,0.00,weatherlink.com 1.10,2013-08-25 22:26:00,
2013-08-25 17:41:00,92.6,70.0,30.76,East,92,5.0,-999.0,48,-99.99,,,0.00,weatherlink.com 1.10,2013-08-25 22:41:00,
2013-08-25 17:56:00,92.1,70.0,30.76,ENE,60,9.0,-999.0,49,-99.99,,,0.00,weatherlink.com 1.10,2013-08-25 22:56:00,
2013-08-25 18:11:00,91.7,71.0,30.76,NE,44,6.0,-999.0,50,-99.99,,,0.00,weatherlink.com 1.10,2013-08-25 23:11:00,
2013-08-25 18:26:00,91.3,72.0,30.76,ESE,103,3.0,-999.0,53,-99.99,,,0.00,weatherlink.com 1.10,2013-08-25 23:26:00,
2013-08-25 18:41:00,90.7,71.0,30.76,ENE,61,10.0,-999.0,53,-99.99,,,0.00,weatherlink.com 1.10,2013-08-25 23:41:00,
2013-08-25 18:56:00,89.9,72.0,30.77,ENE,69,3.0,-999.0,55,-99.99,,,0.00,weatherlink.com 1.10,2013-08-25 23:56:00,
2013-08-25 19:11:00,89.3,72.0,30.76,East,80,4.0,-999.0,57,-99.99,,,0.00,weatherlink.com 1.10,2013-08-26 00:11:00,
2013-08-25 19:26:00,88.8,72.0,30.77,ENE,67,3.0,-999.0,58,-99.99,,,0.00,weatherlink.com 1.10,2013-08-26 00:26:00,
2013-08-25 19:42:00,87.8,72.0,30.77,NE,35,12.0,-999.0,59,-99.99,,,0.00,weatherlink.com 1.10,2013-08-26 00:42:00,
2013-08-25 19:57:00,86.6,72.0,30.78,East,82,5.0,-999.0,61,-99.99,,,0.00,weatherlink.com 1.10,2013-08-26 00:57:00,
2013-08-25 20:12:00,85.8,72.0,30.79,East,92,6.0,-999.0,63,-99.99,,,0.00,weatherlink.com 1.10,2013-08-26 01:12:00,
2013-08-25 20:27:00,85.1,72.0,30.80,NE,52,4.0,-999.0,65,-99.99,,,0.00,weatherlink.com 1.10,2013-08-26 01:27:00,
2013-08-25 20:41:00,84.6,72.0,30.81,ESE,105,5.0,-999.0,66,-99.99,,,0.00,weatherlink.com 1.10,2013-08-26 01:41:00,
2013-08-25 20:56:00,84.2,72.0,30.81,East,95,4.0,-999.0,67,-99.99,,,0.00,weatherlink.com 1.10,2013-08-26 01:56:00,
2013-08-25 21:11:00,83.7,72.0,30.82,NE,51,4.0,-999.0,68,-99.99,,,0.00,weatherlink.com 1.10,2013-08-26 02:11:00,
2013-08-25 21:26:00,83.2,72.0,30.82,East,86,1.0,-999.0,68,-99.99,,,0.00,weatherlink.com 1.10,2013-08-26 02:26:00,
2013-08-25 21:42:00,82.7,72.0,30.83,ENE,76,1.0,-999.0,69,-99.99,,,0.00,weatherlink.com 1.10,2013-08-26 02:42:00,
2013-08-25 21:57:00,82.2,71.0,30.82,ENE,77,3.0,-999.0,69,-99.99,,,0.00,weatherlink.com 1.10,2013-08-26 02:57:00,
2013-08-25 22:12:00,81.6,71.0,30.84,ENE,76,0.0,-999.0,70,-99.99,,,0.00,weatherlink.com 1.10,2013-08-26 03:12:00,
2013-08-25 22:27:00,81.3,71.0,30.83,East,84,5.0,-999.0,71,-99.99,,,0.00,weatherlink.com 1.10,2013-08-26 03:27:00,
2013-08-25 22:42:00,81.1,71.0,30.84,NE,54,3.0,-999.0,72,-99.99,,,0.00,weatherlink.com 1.10,2013-08-26 03:42:00,
2013-08-25 22:57:00,80.7,71.0,30.84,NE,36,6.0,-999.0,73,-99.99,,,0.00,weatherlink.com 1.10,2013-08-26 03:57:00,
2013-08-25 23:12:00,80.3,71.0,30.84,ENE,67,3.0,-999.0,74,-99.99,,,0.00,weatherlink.com 1.10,2013-08-26 04:12:00,
2013-08-25 23:27:00,79.9,71.0,30.84,NE,48,3.0,-999.0,75,-99.99,,,0.00,weatherlink.com 1.10,2013-08-26 04:27:00,
2013-08-25 23:42:00,79.7,72.0,30.84,East,99,2.0,-999.0,76,-99.99,,,0.00,weatherlink.com 1.10,2013-08-26 04:42:00,
2013-08-25 23:57:00,79.4,71.0,30.84,East,93,1.0,-999.0,76,-99.99,,,0.00,weatherlink.com 1.10,2013-08-26 04:57:00,